IRM51 OIIE-VABB

Flight info

Callsign IRM51
Flight time 3h 22m
Altitude 39000
Route OBRIX2G OBRIX M715 PEKES L124 PG G210 BVR R458 BOFIN POKON2A
Aircraft A346/H-SDE2E3FGHIJ3J4J5M1RWXY/LB1D1

Departure

Time 2026-05-07 12:50
Airport Imam Khomeini International Airport (OIIE)

Arrival

Time 2026-05-07 16:13
Airport Chhatrapati Shivaji Maharaj International Airport (VABB)
Time Latitude Longitude Altitude Speed Heading
2026-05-07 12:04 35.41018 51.15599 3278 ft 0 kts 194°
2026-05-07 12:41 35.41026 51.15602 3275 ft 3 kts 194°
2026-05-07 12:42 35.41048 51.15608 3276 ft 3 kts 194°
2026-05-07 12:42 35.41066 51.15613 3274 ft 3 kts 181°
2026-05-07 12:42 35.41084 51.15609 3274 ft 3 kts 154°
2026-05-07 12:42 35.41096 51.15598 3274 ft 3 kts 123°
2026-05-07 12:43 35.41104 51.15575 3274 ft 3 kts 107°
2026-05-07 12:43 35.41111 51.15549 3274 ft 3 kts 108°
2026-05-07 12:43 35.41113 51.15539 3274 ft 0 kts 109°
2026-05-07 12:44 35.41114 51.15539 3274 ft 0 kts 109°
2026-05-07 12:45 35.41113 51.15539 3274 ft 0 kts 109°
2026-05-07 12:45 35.41110 51.15551 3274 ft 3 kts 109°
2026-05-07 12:46 35.41100 51.15586 3274 ft 5 kts 109°
2026-05-07 12:46 35.41086 51.15638 3276 ft 7 kts 109°
2026-05-07 12:46 35.41067 51.15705 3276 ft 9 kts 109°
2026-05-07 12:46 35.41052 51.15786 3278 ft 10 kts 82°
2026-05-07 12:47 35.41101 51.15842 3276 ft 11 kts 23°
2026-05-07 12:47 35.41176 51.15879 3278 ft 12 kts 38°
2026-05-07 12:47 35.41186 51.15984 3276 ft 15 kts 105°
2026-05-07 12:47 35.41147 51.16123 3272 ft 19 kts 109°
2026-05-07 12:48 35.41107 51.16265 3270 ft 12 kts 108°
2026-05-07 12:48 35.41138 51.16358 3269 ft 14 kts 33°
2026-05-07 12:48 35.41221 51.16399 3267 ft 11 kts 19°
2026-05-07 12:48 35.41294 51.16430 3271 ft 11 kts 19°
2026-05-07 12:49 35.41356 51.16424 3273 ft 9 kts 317°
2026-05-07 12:49 35.41375 51.16378 3271 ft 3 kts 288°
2026-05-07 12:49 35.41386 51.16337 3271 ft 13 kts 288°
2026-05-07 12:49 35.41485 51.15982 3276 ft 75 kts 289°
2026-05-07 12:50 35.41718 51.15148 3294 ft 130 kts 289°
2026-05-07 12:50 35.42064 51.13903 3302 ft 176 kts 289°
2026-05-07 12:50 35.42489 51.12332 3398 ft 207 kts 292°
2026-05-07 12:50 35.42949 51.10687 4085 ft 196 kts 287°
2026-05-07 12:51 35.43087 51.09100 4908 ft 181 kts 259°
2026-05-07 12:51 35.42614 51.07740 5534 ft 171 kts 228°
2026-05-07 12:51 35.41653 51.06947 6034 ft 168 kts 196°
2026-05-07 12:51 35.40502 51.06948 6482 ft 169 kts 164°
2026-05-07 12:52 35.39495 51.07734 6824 ft 179 kts 138°
2026-05-07 12:52 35.38728 51.08987 7132 ft 189 kts 120°
2026-05-07 12:52 35.38231 51.10518 7507 ft 197 kts 112°
2026-05-07 12:52 35.37776 51.12168 7809 ft 210 kts 112°
2026-05-07 12:53 35.37288 51.13910 8176 ft 223 kts 112°
2026-05-07 12:53 35.36773 51.15746 8474 ft 239 kts 112°
2026-05-07 12:53 35.36207 51.17771 8811 ft 256 kts 112°
2026-05-07 12:53 35.35606 51.19915 9114 ft 276 kts 112°
2026-05-07 12:54 35.34960 51.22181 9484 ft 295 kts 112°
2026-05-07 12:54 35.34082 51.24493 10009 ft 302 kts 130°
2026-05-07 12:54 35.32578 51.26284 10648 ft 305 kts 146°
2026-05-07 12:54 35.30821 51.27854 11097 ft 321 kts 148°
2026-05-07 12:55 35.28947 51.29485 11499 ft 340 kts 148°
2026-05-07 12:55 35.26993 51.31248 11880 ft 359 kts 147°
2026-05-07 12:55 35.24954 51.33147 12242 ft 377 kts 146°
2026-05-07 12:55 35.22823 51.35169 12679 ft 393 kts 146°
2026-05-07 12:56 35.20670 51.37268 13427 ft 399 kts 142°
2026-05-07 12:56 35.18895 51.39947 14206 ft 413 kts 123°
2026-05-07 12:56 35.17884 51.43272 14939 ft 425 kts 104°
2026-05-07 12:56 35.17489 51.46884 15681 ft 431 kts 99°
2026-05-07 12:57 35.17103 51.50560 16347 ft 437 kts 104°
2026-05-07 12:57 35.16127 51.54072 16974 ft 436 kts 121°
2026-05-07 12:57 35.14457 51.57144 17739 ft 433 kts 134°
2026-05-07 12:57 35.12519 51.59911 18418 ft 437 kts 137°
2026-05-07 12:58 35.10490 51.62721 18983 ft 443 kts 136°
2026-05-07 12:58 35.08464 51.65595 19630 ft 448 kts 136°
2026-05-07 12:58 35.06455 51.68527 20313 ft 452 kts 135°
2026-05-07 12:58 35.04452 51.71510 20997 ft 455 kts 135°
2026-05-07 12:59 35.02451 51.74526 21646 ft 459 kts 135°
2026-05-07 12:59 35.00442 51.77570 22301 ft 462 kts 135°
2026-05-07 12:59 34.98424 51.80633 22951 ft 466 kts 135°
2026-05-07 12:59 34.96382 51.83734 23580 ft 469 kts 135°
2026-05-07 13:00 34.94329 51.86851 24128 ft 472 kts 135°
2026-05-07 13:00 34.92266 51.89986 24649 ft 475 kts 135°
2026-05-07 13:00 34.90188 51.93139 25135 ft 479 kts 135°
2026-05-07 13:00 34.88087 51.96321 25630 ft 483 kts 135°
2026-05-07 13:01 34.85970 51.99524 26144 ft 487 kts 135°
2026-05-07 13:01 34.83871 52.02699 26589 ft 491 kts 135°
2026-05-07 13:01 34.81716 52.05954 27051 ft 495 kts 135°
2026-05-07 13:01 34.79539 52.09241 27477 ft 500 kts 135°
2026-05-07 13:02 34.77292 52.12498 27880 ft 502 kts 138°
2026-05-07 13:02 34.74922 52.15601 28479 ft 499 kts 141°
2026-05-07 13:02 34.72431 52.18533 29210 ft 494 kts 144°
2026-05-07 13:02 34.69899 52.21342 29954 ft 492 kts 145°
2026-05-07 13:03 34.67360 52.24143 30549 ft 492 kts 146°
2026-05-07 13:03 34.64821 52.26939 31074 ft 492 kts 146°
2026-05-07 13:03 34.62286 52.29728 31582 ft 492 kts 146°
2026-05-07 13:03 34.59743 52.32525 32081 ft 493 kts 146°
2026-05-07 13:04 34.57230 52.35286 32567 ft 493 kts 147°
2026-05-07 13:04 34.54686 52.38081 33079 ft 493 kts 147°
2026-05-07 13:04 34.52137 52.40880 33617 ft 493 kts 147°
2026-05-07 13:04 34.49591 52.43674 34117 ft 493 kts 147°
2026-05-07 13:05 34.47050 52.46455 34533 ft 492 kts 147°
2026-05-07 13:05 34.44503 52.49242 34996 ft 491 kts 147°
2026-05-07 13:05 34.41971 52.52013 35433 ft 491 kts 147°
2026-05-07 13:05 34.39439 52.54780 35845 ft 490 kts 147°
2026-05-07 13:06 34.36902 52.57550 36223 ft 490 kts 147°
2026-05-07 13:06 34.34402 52.60279 36604 ft 490 kts 147°
2026-05-07 13:06 34.31861 52.63053 36952 ft 490 kts 147°
2026-05-07 13:06 34.29331 52.65814 37325 ft 489 kts 147°
2026-05-07 13:07 34.26794 52.68578 37643 ft 490 kts 147°
2026-05-07 13:07 34.24256 52.71338 37880 ft 491 kts 147°
2026-05-07 13:07 34.21704 52.74111 38131 ft 493 kts 147°
2026-05-07 13:07 34.19149 52.76885 38333 ft 494 kts 147°
2026-05-07 13:08 34.16586 52.79662 38580 ft 496 kts 146°
2026-05-07 13:08 34.14019 52.82447 38782 ft 497 kts 146°
2026-05-07 13:08 34.11432 52.85251 38958 ft 498 kts 146°
2026-05-07 13:08 34.08885 52.88011 38963 ft 498 kts 146°
2026-05-07 13:09 34.03719 52.93601 38955 ft 498 kts 146°
2026-05-07 13:09 33.98546 52.99183 38968 ft 499 kts 146°
2026-05-07 13:10 33.93379 53.04751 38974 ft 499 kts 146°
2026-05-07 13:10 33.88201 53.10324 38957 ft 499 kts 146°
2026-05-07 13:11 33.83013 53.15895 38952 ft 500 kts 146°
2026-05-07 13:11 33.77820 53.21463 38964 ft 500 kts 146°
2026-05-07 13:12 33.73502 53.26085 38944 ft 499 kts 146°
2026-05-07 13:12 33.67449 53.32552 38962 ft 500 kts 146°
2026-05-07 13:13 33.63089 53.37205 38968 ft 500 kts 146°
2026-05-07 13:13 33.57876 53.42757 38957 ft 500 kts 146°
2026-05-07 13:14 33.52662 53.48291 38968 ft 500 kts 146°
2026-05-07 13:14 33.47482 53.53761 38975 ft 500 kts 147°
2026-05-07 13:15 33.42266 53.59288 38963 ft 502 kts 145°
2026-05-07 13:15 33.37368 53.65319 38970 ft 509 kts 138°
2026-05-07 13:16 33.33011 53.72061 38976 ft 514 kts 133°
2026-05-07 13:16 33.28879 53.79066 38962 ft 515 kts 132°
2026-05-07 13:17 33.24734 53.86063 38954 ft 514 kts 132°
2026-05-07 13:17 33.20578 53.93030 38960 ft 514 kts 133°
2026-05-07 13:18 33.16419 53.99976 38966 ft 514 kts 133°
2026-05-07 13:18 33.12251 54.06919 38954 ft 516 kts 133°
2026-05-07 13:19 33.08060 54.13884 38951 ft 516 kts 133°
2026-05-07 13:19 33.03861 54.20852 38941 ft 516 kts 133°
2026-05-07 13:20 32.99674 54.27782 38912 ft 516 kts 133°
2026-05-07 13:20 32.95508 54.34674 38926 ft 515 kts 133°
2026-05-07 13:21 32.91309 54.41606 38926 ft 515 kts 133°
2026-05-07 13:21 32.87106 54.48527 38923 ft 515 kts 133°
2026-05-07 13:22 32.82912 54.55427 38913 ft 514 kts 133°
2026-05-07 13:22 32.78723 54.62315 38923 ft 513 kts 133°
2026-05-07 13:23 32.74533 54.69190 38933 ft 513 kts 133°
2026-05-07 13:23 32.70341 54.76052 38920 ft 513 kts 133°
2026-05-07 13:24 32.66133 54.82929 38930 ft 513 kts 133°
2026-05-07 13:24 32.61934 54.89778 38930 ft 513 kts 133°
2026-05-07 13:25 32.57736 54.96613 38928 ft 513 kts 133°
2026-05-07 13:25 32.53535 55.03440 38927 ft 512 kts 133°
2026-05-07 13:26 32.49357 55.10215 38925 ft 512 kts 133°
2026-05-07 13:26 32.45048 55.16981 38941 ft 510 kts 135°
2026-05-07 13:27 32.40688 55.23535 38930 ft 510 kts 135°
2026-05-07 13:27 32.36291 55.30143 38945 ft 510 kts 135°
2026-05-07 13:28 32.31904 55.36751 38953 ft 511 kts 135°
2026-05-07 13:28 32.27513 55.43364 38968 ft 511 kts 135°
2026-05-07 13:29 32.23122 55.49972 38972 ft 511 kts 135°
2026-05-07 13:29 32.18715 55.56585 38978 ft 512 kts 135°
2026-05-07 13:30 32.14310 55.63186 38992 ft 512 kts 135°
2026-05-07 13:30 32.09894 55.69796 38997 ft 512 kts 135°
2026-05-07 13:31 32.05476 55.76397 39005 ft 512 kts 135°
2026-05-07 13:31 32.01041 55.83004 39020 ft 514 kts 135°
2026-05-07 13:32 31.96607 55.89604 39031 ft 514 kts 135°
2026-05-07 13:32 31.92155 55.96219 39048 ft 515 kts 136°
2026-05-07 13:33 31.87706 56.02816 39034 ft 515 kts 136°
2026-05-07 13:33 31.83240 56.09428 39062 ft 515 kts 136°
2026-05-07 13:34 31.76576 56.19276 39054 ft 516 kts 136°
2026-05-07 13:35 31.72093 56.25883 39088 ft 516 kts 136°
2026-05-07 13:35 31.67611 56.32476 39068 ft 517 kts 136°
2026-05-07 13:36 31.63119 56.39075 39088 ft 517 kts 136°
2026-05-07 13:36 31.58619 56.45674 39086 ft 517 kts 136°
2026-05-07 13:37 31.54116 56.52266 39057 ft 517 kts 136°
2026-05-07 13:37 31.49618 56.58841 39054 ft 517 kts 136°
2026-05-07 13:38 31.45090 56.65442 39043 ft 520 kts 136°
2026-05-07 13:38 31.40551 56.72046 39073 ft 521 kts 136°
2026-05-07 13:39 31.36000 56.78659 39038 ft 521 kts 136°
2026-05-07 13:39 31.31455 56.85252 39018 ft 520 kts 136°
2026-05-07 13:40 31.26891 56.91857 39054 ft 522 kts 136°
2026-05-07 13:40 31.22311 56.98463 39010 ft 522 kts 137°
2026-05-07 13:41 31.17579 57.04870 39042 ft 520 kts 139°
2026-05-07 13:41 31.12831 57.11179 39027 ft 521 kts 139°
2026-05-07 13:42 31.08043 57.17567 39025 ft 523 kts 139°
2026-05-07 13:42 31.03255 57.23970 39030 ft 523 kts 139°
2026-05-07 13:43 30.98482 57.30342 39021 ft 522 kts 139°
2026-05-07 13:43 30.93700 57.36717 39057 ft 523 kts 139°
2026-05-07 13:44 30.88905 57.43098 39017 ft 524 kts 139°
2026-05-07 13:44 30.84096 57.49485 39004 ft 524 kts 139°
2026-05-07 13:45 30.79296 57.55870 39011 ft 524 kts 138°
2026-05-07 13:45 30.74497 57.62294 38976 ft 526 kts 138°
2026-05-07 13:46 30.69698 57.68713 38995 ft 526 kts 138°
2026-05-07 13:46 30.64913 57.75097 38972 ft 527 kts 138°
2026-05-07 13:47 30.60091 57.81516 38959 ft 527 kts 138°
2026-05-07 13:47 30.55263 57.87933 38943 ft 528 kts 138°
2026-05-07 13:48 30.50427 57.94351 38930 ft 527 kts 138°
2026-05-07 13:48 30.45594 58.00753 38918 ft 527 kts 138°
2026-05-07 13:49 30.40762 58.07145 38915 ft 526 kts 138°
2026-05-07 13:49 30.35935 58.13520 38927 ft 526 kts 138°
2026-05-07 13:50 30.31110 58.19880 38915 ft 526 kts 138°
2026-05-07 13:50 30.26275 58.26238 38894 ft 525 kts 138°
2026-05-07 13:51 30.21447 58.32585 38909 ft 525 kts 138°
2026-05-07 13:51 30.16618 58.38922 38897 ft 525 kts 138°
2026-05-07 13:52 30.11784 58.45253 38896 ft 525 kts 138°
2026-05-07 13:52 30.06945 58.51576 38893 ft 525 kts 138°
2026-05-07 13:53 30.02098 58.57905 38898 ft 525 kts 138°
2026-05-07 13:53 29.97250 58.64226 38895 ft 525 kts 138°
2026-05-07 13:54 29.92400 58.70529 38898 ft 525 kts 139°
2026-05-07 13:54 29.87495 58.76768 38887 ft 524 kts 139°
2026-05-07 13:55 29.82576 58.82985 38890 ft 524 kts 139°
2026-05-07 13:55 29.77695 58.89153 38891 ft 524 kts 139°
2026-05-07 13:56 29.72777 58.95364 38864 ft 524 kts 139°
2026-05-07 13:56 29.67865 59.01558 38874 ft 524 kts 139°
2026-05-07 13:57 29.62951 59.07749 38877 ft 525 kts 139°
2026-05-07 13:57 29.58020 59.13950 38871 ft 525 kts 139°
2026-05-07 13:58 29.53088 59.20142 38857 ft 525 kts 139°
2026-05-07 13:58 29.48149 59.26332 38863 ft 525 kts 139°
2026-05-07 13:59 29.43213 59.32512 38875 ft 525 kts 139°
2026-05-07 13:59 29.38267 59.38692 38864 ft 525 kts 139°
2026-05-07 14:00 29.33324 59.44858 38845 ft 525 kts 139°
2026-05-07 14:00 29.28378 59.51020 38871 ft 525 kts 139°
2026-05-07 14:01 29.23434 59.57171 38845 ft 525 kts 139°
2026-05-07 14:01 29.19318 59.62283 38861 ft 524 kts 139°
2026-05-07 14:02 29.13539 59.69449 38841 ft 523 kts 139°
2026-05-07 14:02 29.09440 59.74526 38861 ft 522 kts 139°
2026-05-07 14:03 29.04507 59.80632 38848 ft 522 kts 138°
2026-05-07 14:03 28.99894 59.87086 38881 ft 528 kts 131°
2026-05-07 14:04 28.95933 59.94208 38866 ft 532 kts 123°
2026-05-07 14:04 28.92523 60.01711 38896 ft 533 kts 121°
2026-05-07 14:05 28.89144 60.09253 38912 ft 532 kts 121°
2026-05-07 14:05 28.85746 60.16766 38915 ft 532 kts 121°
2026-05-07 14:06 28.82329 60.24271 38930 ft 532 kts 121°
2026-05-07 14:06 28.78913 60.31752 38950 ft 531 kts 121°
2026-05-07 14:07 28.75498 60.39222 38944 ft 530 kts 121°
2026-05-07 14:07 28.72081 60.46683 38971 ft 530 kts 121°
2026-05-07 14:08 28.68661 60.54130 38976 ft 530 kts 121°
2026-05-07 14:08 28.65230 60.61594 38975 ft 530 kts 121°
2026-05-07 14:09 28.61803 60.69028 38972 ft 529 kts 121°
2026-05-07 14:09 28.58380 60.76447 38987 ft 528 kts 121°
2026-05-07 14:10 28.54955 60.83853 38974 ft 528 kts 121°
2026-05-07 14:10 28.51556 60.91194 38999 ft 528 kts 121°
2026-05-07 14:11 28.48126 60.98587 38969 ft 528 kts 121°
2026-05-07 14:11 28.44699 61.05959 38966 ft 526 kts 121°
2026-05-07 14:12 28.41268 61.13320 38961 ft 527 kts 121°
2026-05-07 14:12 28.37827 61.20698 38950 ft 527 kts 121°
2026-05-07 14:13 28.34386 61.28060 38930 ft 527 kts 121°
2026-05-07 14:13 28.30941 61.35416 38945 ft 528 kts 121°
2026-05-07 14:14 28.27482 61.42788 38932 ft 527 kts 121°
2026-05-07 14:14 28.24030 61.50134 38926 ft 526 kts 121°
2026-05-07 14:15 28.20579 61.57464 38918 ft 526 kts 121°
2026-05-07 14:15 28.17119 61.64793 38922 ft 526 kts 121°
2026-05-07 14:16 28.13674 61.72054 38921 ft 526 kts 121°
2026-05-07 14:16 28.10199 61.79363 38921 ft 526 kts 121°
2026-05-07 14:17 28.06720 61.86668 38916 ft 526 kts 121°
2026-05-07 14:17 28.03243 61.93958 38898 ft 526 kts 121°
2026-05-07 14:18 27.99763 62.01238 38918 ft 527 kts 121°
2026-05-07 14:18 27.96267 62.08542 38894 ft 527 kts 121°
2026-05-07 14:19 27.92769 62.15835 38890 ft 525 kts 121°
2026-05-07 14:19 27.89283 62.23094 38871 ft 524 kts 121°
2026-05-07 14:20 27.85795 62.30341 38859 ft 525 kts 121°
2026-05-07 14:20 27.82296 62.37598 38859 ft 525 kts 121°
2026-05-07 14:21 27.78799 62.44843 38835 ft 525 kts 121°
2026-05-07 14:21 27.75321 62.52033 38826 ft 524 kts 121°
2026-05-07 14:22 27.71787 62.59316 38813 ft 526 kts 121°
2026-05-07 14:22 27.68268 62.66572 38793 ft 526 kts 121°
2026-05-07 14:23 27.64747 62.73817 38804 ft 526 kts 121°
2026-05-07 14:23 27.61241 62.81013 38791 ft 526 kts 121°
2026-05-07 14:24 27.57704 62.88250 38792 ft 526 kts 121°
2026-05-07 14:24 27.54161 62.95471 38794 ft 525 kts 121°
2026-05-07 14:25 27.50629 63.02657 38783 ft 524 kts 121°
2026-05-07 14:25 27.47088 63.09848 38801 ft 524 kts 121°
2026-05-07 14:26 27.43540 63.17040 38794 ft 525 kts 121°
2026-05-07 14:26 27.39987 63.24231 38805 ft 526 kts 121°
2026-05-07 14:27 27.36427 63.31426 38786 ft 524 kts 121°
2026-05-07 14:27 27.32872 63.38598 38791 ft 523 kts 121°
2026-05-07 14:28 27.29320 63.45752 38797 ft 524 kts 121°
2026-05-07 14:28 27.25754 63.52920 38794 ft 525 kts 121°
2026-05-07 14:29 27.22202 63.60053 38797 ft 526 kts 121°
2026-05-07 14:29 27.18622 63.67229 38787 ft 525 kts 121°
2026-05-07 14:30 27.15051 63.74375 38806 ft 523 kts 121°
2026-05-07 14:30 27.11479 63.81504 38807 ft 524 kts 121°
2026-05-07 14:31 27.07896 63.88651 38811 ft 525 kts 121°
2026-05-07 14:31 27.04309 63.95792 38805 ft 524 kts 121°
2026-05-07 14:32 27.00724 64.02915 38819 ft 524 kts 122°
2026-05-07 14:32 26.96812 64.09786 38814 ft 521 kts 129°
2026-05-07 14:33 26.92212 64.16023 38822 ft 518 kts 136°
2026-05-07 14:33 26.86990 64.21539 38821 ft 514 kts 144°
2026-05-07 14:34 26.81479 64.26651 38816 ft 514 kts 144°
2026-05-07 14:34 26.75974 64.31749 38801 ft 513 kts 144°
2026-05-07 14:35 26.70486 64.36851 38825 ft 512 kts 144°
2026-05-07 14:35 26.65001 64.41960 38812 ft 513 kts 144°
2026-05-07 14:36 26.59510 64.47068 38811 ft 513 kts 144°
2026-05-07 14:36 26.54023 64.52165 38787 ft 513 kts 144°
2026-05-07 14:37 26.48544 64.57247 38786 ft 510 kts 144°
2026-05-07 14:37 26.40381 64.64810 38788 ft 510 kts 144°
2026-05-07 14:38 26.34913 64.69866 38781 ft 510 kts 144°
2026-05-07 14:38 26.29449 64.74911 38753 ft 510 kts 143°
2026-05-07 14:39 26.23981 64.79954 38764 ft 508 kts 143°
2026-05-07 14:39 26.18534 64.84974 38761 ft 508 kts 143°
2026-05-07 14:40 26.13082 64.89990 38768 ft 508 kts 144°
2026-05-07 14:40 26.07629 64.95000 38762 ft 508 kts 144°
2026-05-07 14:41 26.02250 65.00105 38762 ft 510 kts 140°
2026-05-07 14:41 25.97371 65.05881 38759 ft 514 kts 131°
2026-05-07 14:42 25.93187 65.12358 38751 ft 517 kts 123°
2026-05-07 14:42 25.89676 65.19349 38753 ft 518 kts 120°
2026-05-07 14:43 25.86317 65.26359 38748 ft 517 kts 120°
2026-05-07 14:43 25.82911 65.33407 38747 ft 516 kts 120°
2026-05-07 14:44 25.79492 65.40440 38746 ft 516 kts 120°
2026-05-07 14:44 25.76074 65.47450 38745 ft 516 kts 120°
2026-05-07 14:45 25.72648 65.54463 38748 ft 516 kts 120°
2026-05-07 14:45 25.69218 65.61474 38756 ft 516 kts 120°
2026-05-07 14:46 25.65784 65.68476 38748 ft 517 kts 120°
2026-05-07 14:46 25.62346 65.75481 38747 ft 516 kts 120°
2026-05-07 14:47 25.58908 65.82475 38757 ft 516 kts 120°
2026-05-07 14:47 25.55466 65.89464 38758 ft 516 kts 120°
2026-05-07 14:48 25.52019 65.96454 38761 ft 517 kts 120°
2026-05-07 14:48 25.49144 66.02275 38760 ft 518 kts 120°
2026-05-07 14:49 25.45096 66.10459 38760 ft 518 kts 120°
2026-05-07 14:49 25.42210 66.16285 38753 ft 517 kts 120°
2026-05-07 14:50 25.38752 66.23256 38755 ft 515 kts 120°
2026-05-07 14:50 25.35297 66.30210 38762 ft 517 kts 120°
2026-05-07 14:51 25.31261 66.38320 38764 ft 517 kts 120°
2026-05-07 14:51 25.28351 66.44158 38765 ft 517 kts 120°
2026-05-07 14:52 25.24873 66.51128 38772 ft 517 kts 120°
2026-05-07 14:52 25.21390 66.58093 38763 ft 517 kts 120°
2026-05-07 14:53 25.17912 66.65045 38777 ft 516 kts 120°
2026-05-07 14:53 25.14439 66.71992 38778 ft 516 kts 120°
2026-05-07 14:54 25.10987 66.78882 38777 ft 516 kts 120°
2026-05-07 14:54 25.07479 66.85871 38777 ft 516 kts 120°
2026-05-07 14:55 25.04018 66.92757 38787 ft 517 kts 120°
2026-05-07 14:55 25.00515 66.99716 38786 ft 518 kts 120°
2026-05-07 14:56 24.97018 67.06649 38792 ft 517 kts 120°
2026-05-07 14:56 24.93520 67.13577 38794 ft 517 kts 120°
2026-05-07 14:57 24.90024 67.20512 38794 ft 517 kts 120°
2026-05-07 14:57 24.86578 67.27473 38793 ft 517 kts 120°
2026-05-07 14:58 24.83128 67.34441 38790 ft 517 kts 120°
2026-05-07 14:58 24.79673 67.41395 38786 ft 517 kts 120°
2026-05-07 14:59 24.76212 67.48341 38775 ft 516 kts 120°
2026-05-07 14:59 24.72765 67.55252 38784 ft 515 kts 120°
2026-05-07 15:00 24.69314 67.62179 38781 ft 516 kts 120°
2026-05-07 15:00 24.65865 67.69121 38780 ft 516 kts 120°
2026-05-07 15:01 24.62414 67.76056 38779 ft 516 kts 120°
2026-05-07 15:01 24.58960 67.82981 38775 ft 516 kts 120°
2026-05-07 15:02 24.55501 67.89906 38773 ft 516 kts 120°
2026-05-07 15:02 24.52046 67.96811 38778 ft 514 kts 120°
2026-05-07 15:03 24.48600 68.03691 38776 ft 514 kts 120°
2026-05-07 15:03 24.45171 68.10525 38783 ft 514 kts 120°
2026-05-07 15:04 24.41709 68.17414 38786 ft 514 kts 120°
2026-05-07 15:04 24.38251 68.24286 38783 ft 515 kts 120°
2026-05-07 15:05 24.34782 68.31170 38788 ft 515 kts 120°
2026-05-07 15:05 24.31313 68.38044 38785 ft 513 kts 120°
2026-05-07 15:06 24.27852 68.44892 38791 ft 513 kts 120°
2026-05-07 15:06 24.24389 68.51733 38792 ft 512 kts 120°
2026-05-07 15:07 24.20924 68.58569 38791 ft 514 kts 120°
2026-05-07 15:07 24.17444 68.65423 38800 ft 514 kts 120°
2026-05-07 15:08 24.14006 68.72301 38800 ft 514 kts 117°
2026-05-07 15:08 24.11134 68.79486 38797 ft 515 kts 110°
2026-05-07 15:09 24.09006 68.86956 38804 ft 512 kts 105°
2026-05-07 15:09 24.07083 68.94479 38810 ft 513 kts 105°
2026-05-07 15:10 24.05151 69.01986 38799 ft 513 kts 105°
2026-05-07 15:10 24.03212 69.09453 38810 ft 513 kts 105°
2026-05-07 15:11 24.01252 69.16966 38806 ft 513 kts 106°
2026-05-07 15:11 23.99290 69.24461 38803 ft 513 kts 106°
2026-05-07 15:12 23.97318 69.31983 38807 ft 514 kts 106°
2026-05-07 15:12 23.95341 69.39506 38809 ft 514 kts 106°
2026-05-07 15:13 23.93360 69.47026 38811 ft 514 kts 106°
2026-05-07 15:13 23.91376 69.54542 38807 ft 514 kts 106°
2026-05-07 15:14 23.89386 69.62062 38808 ft 515 kts 106°
2026-05-07 15:14 23.87390 69.69594 38804 ft 515 kts 106°
2026-05-07 15:15 23.85390 69.77122 38804 ft 515 kts 106°
2026-05-07 15:15 23.83386 69.84651 38800 ft 515 kts 106°
2026-05-07 15:16 23.81376 69.92182 38802 ft 516 kts 106°
2026-05-07 15:16 23.79362 69.99715 38797 ft 517 kts 106°
2026-05-07 15:17 23.77343 70.07254 38793 ft 517 kts 106°
2026-05-07 15:17 23.75319 70.14793 38794 ft 517 kts 106°
2026-05-07 15:18 23.73290 70.22329 38796 ft 517 kts 106°
2026-05-07 15:18 23.71271 70.29822 38782 ft 517 kts 106°
2026-05-07 15:19 23.69241 70.37342 38788 ft 515 kts 106°
2026-05-07 15:19 23.67206 70.44852 38788 ft 515 kts 106°
2026-05-07 15:20 23.65168 70.52356 38786 ft 515 kts 106°
2026-05-07 15:20 23.63128 70.59858 38793 ft 516 kts 106°
2026-05-07 15:21 23.61079 70.67378 38789 ft 517 kts 107°
2026-05-07 15:21 23.59025 70.74900 38781 ft 517 kts 107°
2026-05-07 15:22 23.56967 70.82418 38780 ft 517 kts 107°
2026-05-07 15:22 23.54881 70.89919 38781 ft 517 kts 109°
2026-05-07 15:23 23.51734 70.96954 38780 ft 516 kts 125°
2026-05-07 15:23 23.47127 71.02884 38769 ft 511 kts 140°
2026-05-07 15:24 23.41430 71.07427 38779 ft 506 kts 151°
2026-05-07 15:24 23.35434 71.11431 38778 ft 506 kts 152°
2026-05-07 15:25 23.29477 71.15420 38775 ft 506 kts 151°
2026-05-07 15:25 23.23500 71.19460 38775 ft 506 kts 151°
2026-05-07 15:26 23.17532 71.23504 38777 ft 504 kts 151°
2026-05-07 15:26 23.11579 71.27541 38783 ft 504 kts 151°
2026-05-07 15:27 23.05628 71.31572 38775 ft 504 kts 151°
2026-05-07 15:27 22.99687 71.35592 38788 ft 504 kts 151°
2026-05-07 15:28 22.93734 71.39615 38778 ft 504 kts 151°
2026-05-07 15:28 22.87785 71.43631 38791 ft 503 kts 151°
2026-05-07 15:29 22.81841 71.47641 38787 ft 503 kts 151°
2026-05-07 15:29 22.75903 71.51642 38798 ft 503 kts 151°
2026-05-07 15:30 22.69957 71.55645 38802 ft 503 kts 151°
2026-05-07 15:30 22.64042 71.59622 38792 ft 504 kts 151°
2026-05-07 15:31 22.58082 71.63624 38793 ft 504 kts 151°
2026-05-07 15:31 22.52122 71.67624 38792 ft 504 kts 151°
2026-05-07 15:32 22.46162 71.71620 38777 ft 504 kts 151°
2026-05-07 15:32 22.40205 71.75609 38785 ft 504 kts 151°
2026-05-07 15:33 22.34245 71.79595 38781 ft 502 kts 151°
2026-05-07 15:33 22.28315 71.83558 38781 ft 500 kts 151°
2026-05-07 15:34 22.22390 71.87514 38775 ft 500 kts 151°
2026-05-07 15:34 22.16471 71.91461 38795 ft 500 kts 151°
2026-05-07 15:35 22.10540 71.95414 38787 ft 501 kts 151°
2026-05-07 15:35 22.04607 71.99359 38783 ft 500 kts 151°
2026-05-07 15:36 21.98693 72.03292 38785 ft 500 kts 151°
2026-05-07 15:36 21.92756 72.07237 38791 ft 500 kts 151°
2026-05-07 15:37 21.86828 72.11170 38787 ft 500 kts 151°
2026-05-07 15:37 21.80870 72.15042 38797 ft 499 kts 154°
2026-05-07 15:38 21.74651 72.18292 38788 ft 495 kts 160°
2026-05-07 15:38 21.68174 72.20739 38801 ft 492 kts 167°
2026-05-07 15:39 21.62668 72.22236 38802 ft 491 kts 169°
2026-05-07 15:39 21.56028 72.23947 38807 ft 491 kts 169°
2026-05-07 15:40 21.48315 72.25947 38805 ft 491 kts 169°
2026-05-07 15:40 21.42759 72.27391 38810 ft 491 kts 169°
2026-05-07 15:41 21.36122 72.29120 38811 ft 490 kts 169°
2026-05-07 15:41 21.29494 72.30845 38810 ft 490 kts 169°
2026-05-07 15:42 21.22860 72.32570 38817 ft 490 kts 169°
2026-05-07 15:42 21.16226 72.34293 38816 ft 490 kts 169°
2026-05-07 15:43 21.09591 72.36014 38822 ft 490 kts 169°
2026-05-07 15:43 21.02961 72.37731 38821 ft 490 kts 169°
2026-05-07 15:44 20.96370 72.39437 38819 ft 490 kts 169°
2026-05-07 15:44 20.89736 72.41147 38818 ft 490 kts 169°
2026-05-07 15:45 20.83096 72.42844 38818 ft 490 kts 169°
2026-05-07 15:45 20.76409 72.44109 38819 ft 487 kts 178°
2026-05-07 15:46 20.69682 72.44009 38824 ft 482 kts 189°
2026-05-07 15:46 20.66374 72.43442 38824 ft 480 kts 195°
2026-05-07 15:47 20.60030 72.41365 38829 ft 476 kts 204°
2026-05-07 15:47 20.53844 72.38818 38762 ft 477 kts 204°
2026-05-07 15:47 20.50739 72.37533 38197 ft 480 kts 204°
2026-05-07 15:48 20.47664 72.36269 37552 ft 480 kts 204°
2026-05-07 15:48 20.44544 72.34994 36915 ft 480 kts 204°
2026-05-07 15:48 20.41422 72.33720 36279 ft 480 kts 204°
2026-05-07 15:48 20.38292 72.32446 35611 ft 482 kts 204°
2026-05-07 15:49 20.35153 72.31168 34962 ft 483 kts 204°
2026-05-07 15:49 20.32003 72.29887 34321 ft 485 kts 204°
2026-05-07 15:49 20.28846 72.28604 33640 ft 487 kts 204°
2026-05-07 15:49 20.25674 72.27316 32899 ft 488 kts 204°
2026-05-07 15:50 20.22497 72.26026 32172 ft 490 kts 204°
2026-05-07 15:50 20.19303 72.24728 31491 ft 491 kts 204°
2026-05-07 15:50 20.16107 72.23429 30822 ft 492 kts 204°
2026-05-07 15:50 20.12904 72.22131 30122 ft 494 kts 204°
2026-05-07 15:51 20.09678 72.20825 29318 ft 497 kts 204°
2026-05-07 15:51 20.06437 72.19512 28504 ft 499 kts 204°
2026-05-07 15:51 20.03184 72.18196 27703 ft 501 kts 204°
2026-05-07 15:51 19.99933 72.16880 26937 ft 502 kts 204°
2026-05-07 15:52 19.96683 72.15567 26411 ft 497 kts 204°
2026-05-07 15:52 19.93460 72.14265 25866 ft 493 kts 204°
2026-05-07 15:52 19.90254 72.12969 25273 ft 491 kts 204°
2026-05-07 15:52 19.87067 72.11682 24745 ft 488 kts 204°
2026-05-07 15:53 19.83955 72.10424 24256 ft 484 kts 204°
2026-05-07 15:53 19.80695 72.09378 23720 ft 485 kts 191°
2026-05-07 15:53 19.77383 72.09436 23214 ft 485 kts 170°
2026-05-07 15:53 19.74225 72.10643 22685 ft 480 kts 150°
2026-05-07 15:54 19.71598 72.12759 22244 ft 472 kts 136°
2026-05-07 15:54 19.69204 72.15107 21814 ft 465 kts 136°
2026-05-07 15:54 19.66847 72.17432 21395 ft 459 kts 136°
2026-05-07 15:54 19.64509 72.19714 20979 ft 453 kts 136°
2026-05-07 15:55 19.62196 72.21946 20560 ft 447 kts 136°
2026-05-07 15:55 19.59895 72.24148 20140 ft 442 kts 137°
2026-05-07 15:55 19.57620 72.26315 19723 ft 437 kts 137°
2026-05-07 15:55 19.55368 72.28464 19284 ft 433 kts 138°
2026-05-07 15:56 19.53130 72.30587 18850 ft 429 kts 138°
2026-05-07 15:56 19.50915 72.32683 18442 ft 424 kts 139°
2026-05-07 15:56 19.48729 72.34750 18014 ft 419 kts 139°
2026-05-07 15:56 19.46561 72.36798 17554 ft 414 kts 139°
2026-05-07 15:57 19.44421 72.38818 17096 ft 410 kts 138°
2026-05-07 15:57 19.42303 72.40819 16646 ft 405 kts 138°
2026-05-07 15:57 19.40207 72.42799 16187 ft 401 kts 138°
2026-05-07 15:57 19.38133 72.44759 15741 ft 398 kts 138°
2026-05-07 15:58 19.36075 72.46703 15301 ft 395 kts 138°
2026-05-07 15:58 19.34030 72.48635 14920 ft 388 kts 138°
2026-05-07 15:58 19.32028 72.50526 14574 ft 381 kts 138°
2026-05-07 15:58 19.30090 72.52356 14190 ft 375 kts 138°
2026-05-07 15:59 19.28152 72.54183 13830 ft 370 kts 137°
2026-05-07 15:59 19.26240 72.55988 13446 ft 364 kts 137°
2026-05-07 15:59 19.24363 72.57760 13046 ft 358 kts 137°
2026-05-07 15:59 19.22742 72.59708 12763 ft 348 kts 122°
2026-05-07 16:00 19.21795 72.62018 12555 ft 338 kts 105°
2026-05-07 16:00 19.21521 72.64463 12370 ft 328 kts 92°
2026-05-07 16:00 19.21505 72.66853 12190 ft 318 kts 90°
2026-05-07 16:00 19.21514 72.69160 12011 ft 309 kts 90°
2026-05-07 16:01 19.21519 72.71408 11792 ft 302 kts 90°
2026-05-07 16:01 19.21518 72.73625 11435 ft 300 kts 91°
2026-05-07 16:01 19.21512 72.75830 11061 ft 299 kts 91°
2026-05-07 16:01 19.21501 72.78033 10676 ft 298 kts 90°
2026-05-07 16:02 19.21487 72.80228 10306 ft 298 kts 90°
2026-05-07 16:02 19.21475 72.82392 10140 ft 289 kts 90°
2026-05-07 16:02 19.21461 72.84491 9987 ft 280 kts 90°
2026-05-07 16:02 19.21448 72.86531 9771 ft 275 kts 90°
2026-05-07 16:03 19.21433 72.88554 9418 ft 274 kts 90°
2026-05-07 16:03 19.21419 72.90575 9052 ft 274 kts 90°
2026-05-07 16:03 19.21405 72.92594 8720 ft 273 kts 90°
2026-05-07 16:03 19.21390 72.94601 8403 ft 272 kts 90°
2026-05-07 16:04 19.21373 72.96595 8092 ft 271 kts 89°
2026-05-07 16:04 19.21357 72.98590 7782 ft 270 kts 89°
2026-05-07 16:04 19.21343 73.00569 7471 ft 269 kts 89°
2026-05-07 16:04 19.21328 73.02548 7164 ft 268 kts 89°
2026-05-07 16:05 19.21313 73.04521 6856 ft 267 kts 89°
2026-05-07 16:05 19.21298 73.06490 6565 ft 266 kts 89°
2026-05-07 16:05 19.21282 73.08424 6270 ft 265 kts 89°
2026-05-07 16:05 19.21266 73.10377 5977 ft 265 kts 88°
2026-05-07 16:06 19.21252 73.12319 5690 ft 263 kts 89°
2026-05-07 16:06 19.21231 73.14253 5411 ft 261 kts 90°
2026-05-07 16:06 19.20876 73.16132 5093 ft 263 kts 116°
2026-05-07 16:06 19.19719 73.17573 4957 ft 255 kts 147°
2026-05-07 16:07 19.18087 73.18212 4827 ft 251 kts 172°
2026-05-07 16:07 19.16344 73.18356 4729 ft 251 kts 178°
2026-05-07 16:07 19.14603 73.18347 4612 ft 249 kts 191°
2026-05-07 16:07 19.12963 73.17778 4481 ft 248 kts 205°
2026-05-07 16:08 19.11574 73.16747 4335 ft 245 kts 232°
2026-05-07 16:08 19.10839 73.15148 4216 ft 242 kts 257°
2026-05-07 16:08 19.10466 73.13408 4113 ft 241 kts 259°
2026-05-07 16:08 19.10114 73.11679 3964 ft 241 kts 259°
2026-05-07 16:09 19.09755 73.09946 3823 ft 241 kts 259°
2026-05-07 16:09 19.09390 73.08217 3560 ft 240 kts 258°
2026-05-07 16:09 19.09130 73.06479 3276 ft 238 kts 267°
2026-05-07 16:09 19.09082 73.04731 2982 ft 237 kts 271°
2026-05-07 16:10 19.09090 73.03024 2721 ft 235 kts 271°
2026-05-07 16:10 19.09087 73.01310 2471 ft 230 kts 271°
2026-05-07 16:10 19.09065 72.99606 2172 ft 227 kts 270°
2026-05-07 16:10 19.09038 72.97976 1862 ft 221 kts 270°
2026-05-07 16:11 19.09011 72.96387 1567 ft 211 kts 270°
2026-05-07 16:11 19.08988 72.94871 1279 ft 200 kts 270°
2026-05-07 16:11 19.08966 72.93444 1027 ft 186 kts 270°
2026-05-07 16:11 19.08946 72.92118 816 ft 173 kts 271°
2026-05-07 16:12 19.08930 72.90907 629 ft 157 kts 270°
2026-05-07 16:12 19.08915 72.89784 455 ft 149 kts 269°
2026-05-07 16:12 19.08898 72.88710 278 ft 146 kts 270°
2026-05-07 16:12 19.08885 72.87641 100 ft 145 kts 269°
2026-05-07 16:13 19.08868 72.86656 52 ft 112 kts 269°
2026-05-07 16:13 19.08860 72.86022 55 ft 66 kts 269°
2026-05-07 16:13 19.08855 72.85636 57 ft 34 kts 269°
2026-05-07 16:13 19.08865 72.85453 57 ft 23 kts 282°
2026-05-07 16:14 19.08913 72.85311 53 ft 17 kts 298°
2026-05-07 16:14 19.08956 72.85244 51 ft 10 kts 327°
2026-05-07 16:14 19.09018 72.85272 52 ft 13 kts 73°
2026-05-07 16:14 19.09023 72.85380 53 ft 17 kts 89°
2026-05-07 16:15 19.09026 72.85516 52 ft 19 kts 89°
2026-05-07 16:15 19.09027 72.85638 57 ft 18 kts 89°
2026-05-07 16:15 19.09029 72.85782 57 ft 21 kts 89°
2026-05-07 16:15 19.09031 72.85890 57 ft 16 kts 89°
2026-05-07 16:16 19.09033 72.86022 57 ft 20 kts 89°
2026-05-07 16:16 19.09035 72.86167 57 ft 20 kts 89°
2026-05-07 16:16 19.09036 72.86317 57 ft 13 kts 89°
2026-05-07 16:16 19.09038 72.86430 56 ft 17 kts 89°
2026-05-07 16:17 19.09040 72.86566 52 ft 19 kts 89°
2026-05-07 16:17 19.09043 72.86714 59 ft 21 kts 89°
2026-05-07 16:17 19.09045 72.86883 58 ft 24 kts 89°
2026-05-07 16:17 19.09047 72.87029 55 ft 15 kts 89°
2026-05-07 16:18 19.09048 72.87157 54 ft 16 kts 89°
2026-05-07 16:18 19.09056 72.87238 51 ft 10 kts 65°
2026-05-07 16:18 19.09121 72.87263 52 ft 10 kts 360°
2026-05-07 16:18 19.09200 72.87257 52 ft 13 kts 345°
2026-05-07 16:19 19.09260 72.87233 51 ft 8 kts 338°
2026-05-07 16:19 19.09305 72.87213 51 ft 0 kts 338°
2026-05-07 16:19 19.09306 72.87213 51 ft 0 kts 338°